Wind_Speed
21 21 21 22 21 13 11 11 11 11 10 10 10 10 9 8 8 8 8 8 9 9 9 9 8 8 8 7 7 7 8 8 9 9 9 10 10 9 9 9 9 10 10 10 10 11 10 10 10
21 20 22 22 15 12 12 12 12 11 10 10 9 10 10 9 9 8 8 8 8 8 8 8 8 8 8 7 7 7 7 7 8 8 9 9 10 10 9 9 9 10 10 11 10 10 10 10 10
21 22 23 17 12 13 13 13 12 12 11 10 10 10 10 10 9 9 8 8 8 8 8 8 8 7 7 7 7 6 7 7 7 8 8 9 10 10 10 9 10 10 10 10 10 10 10 9 9
21 24 20 12 11 12 13 13 12 12 12 11 10 10 10 10 10 9 8 8 8 8 7 7 7 7 6 6 6 6 6 6 7 7 8 8 9 10 9 9 9 9 9 9 9 9 9 9 8
23 23 13 11 12 12 13 12 12 12 12 11 11 11 11 10 10 9 9 8 8 7 7 7 6 6 6 6 6 5 6 6 6 7 7 8 8 9 9 9 9 9 9 8 9 9 9 8 8
21 17 10 10 11 12 13 13 13 13 13 12 12 12 12 11 11 10 9 9 8 8 7 6 6 6 6 6 5 5 5 5 6 6 6 7 7 8 8 8 9 9 8 8 8 8 9 8 8
17 13 9 9 11 11 12 12 13 13 14 14 13 13 13 12 11 10 10 9 8 8 7 6 6 6 6 5 5 4 5 5 5 5 6 6 7 7 7 8 8 8 8 8 8 8 8 8 8
14 12 8 8 9 10 11 12 13 14 15 15 15 14 14 13 11 10 10 10 9 8 7 6 5 6 5 5 4 4 4 5 5 5 5 6 6 7 7 7 7 8 8 8 8 8 8 8 8
11 10 6 6 8 9 10 11 12 13 14 14 14 15 15 14 13 12 11 11 10 9 8 7 6 5 5 5 4 4 4 5 5 4 5 5 5 6 6 7 7 7 7 7 7 7 7 7 7
8 7 4 4 6 9 10 12 13 14 14 14 14 15 15 14 14 13 12 11 10 9 8 8 7 6 5 5 4 4 4 4 4 4 4 4 4 5 5 6 6 7 7 7 7 6 6 6 6
6 6 4 4 5 7 9 11 13 14 14 14 15 15 15 14 14 13 12 11 11 10 9 8 7 6 5 5 5 4 4 4 3 4 5 5 5 5 5 5 5 5 6 6 6 5 5 5 5
5 4 4 3 5 7 7 9 11 12 13 14 15 15 15 15 14 14 13 12 11 10 10 9 8 7 5 5 5 5 5 4 4 5 5 5 5 5 5 4 4 4 5 5 5 5 5 5 4
2 3 3 4 5 5 6 7 9 12 13 14 15 15 15 15 14 14 13 13 12 11 9 9 8 8 7 5 5 5 6 5 5 5 5 5 5 5 4 4 4 3 4 4 4 4 3 3 3
2 2 3 4 3 5 5 6 8 11 13 15 15 15 16 16 15 15 13 13 13 12 10 9 8 7 7 6 6 6 6 5 4 4 5 5 6 5 4 3 3 3 2 2 2 2 2 2 2
2 2 3 4 5 5 5 6 7 11 13 14 15 15 16 16 16 15 14 14 14 13 11 10 8 7 7 6 6 6 6 5 4 4 4 4 4 4 3 3 3 2 2 1 1 1 1 0 0
2 2 1 2 4 5 7 7 7 12 13 13 13 14 15 15 16 16 15 14 14 13 11 11 9 8 7 7 7 6 6 6 5 4 4 3 3 3 3 3 2 2 2 1 1 0 0 1 1
2 1 1 2 4 4 6 7 7 10 12 13 12 13 14 14 15 16 15 15 14 13 12 11 9 8 7 7 7 7 6 5 4 3 3 3 3 3 3 3 2 2 2 2 2 2 2 2 2
3 3 3 3 5 4 5 7 8 10 11 12 13 13 13 14 15 15 15 15 15 14 13 11 9 9 8 7 6 6 5 5 4 3 3 3 3 3 3 3 2 2 2 2 2 3 3 4 4
6 6 5 5 7 5 5 5 6 9 10 11 11 12 13 14 15 15 15 15 15 14 14 12 10 9 8 7 6 6 5 4 4 4 3 3 3 3 4 4 3 3 4 4 4 5 5 5 5
9 7 5 7 9 6 6 6 6 8 10 10 10 11 12 13 14 15 15 15 15 14 13 12 10 9 8 7 7 6 6 5 5 4 4 3 4 4 4 4 4 5 5 6 6 7 7 7 7
11 10 8 7 8 7 7 8 7 6 9 11 11 11 12 13 13 14 15 15 15 14 13 12 11 10 9 8 7 7 7 7 6 5 5 5 5 5 5 6 6 6 7 8 8 8 8 9 9
11 11 11 10 8 6 7 10 10 10 10 10 12 12 12 12 12 13 14 15 15 15 13 12 12 11 10 9 8 8 7 7 7 7 6 6 6 7 7 8 8 8 9 9 10 9 10 10 11
13 12 12 11 8 7 8 10 11 11 12 10 11 12 12 12 12 13 14 14 15 15 15 13 12 12 10 10 9 8 7 7 7 7 7 7 7 8 9 9 9 9 10 10 11 11 10 11 11
15 13 11 10 9 10 7 8 11 10 11 11 12 13 12 13 13 13 13 14 15 15 15 14 13 12 11 10 10 9 8 8 8 8 8 8 8 9 9 9 10 10 10 10 11 10 11 11 11
17 14 12 11 11 10 8 9 13 12 11 13 13 14 13 11 13 13 13 14 15 15 15 15 13 12 12 11 10 10 8 9 9 9 8 9 9 9 10 10 10 11 11 11 11 11 11 11 11
18 17 15 12 9 9 9 11 13 14 14 14 13 13 12 11 12 11 12 13 14 15 14 14 13 13 12 11 11 10 9 10 10 10 10 9 9 10 10 10 10 11 11 11 11 11 11 11 11
20 18 16 14 11 10 12 12 15 15 14 13 13 12 11 11 12 13 13 13 14 14 14 14 14 13 12 12 11 11 10 10 11 11 10 10 10 10 10 10 10 10 10 11 11 11 11 11 11
22 19 18 18 15 13 12 13 16 17 15 14 12 11 11 11 12 12 12 13 13 13 13 14 13 13 12 12 12 11 11 11 11 11 10 9 9 10 10 10 10 10 11 11 11 11 11 11 11
23 22 20 18 17 15 13 14 15 19 18 17 15 12 10 11 12 12 12 12 13 13 13 13 13 13 13 12 12 12 12 12 12 12 10 9 9 9 9 9 9 10 10 11 11 11 11 11 11
23 23 21 21 20 18 15 15 15 17 17 16 14 13 12 12 12 13 12 12 13 13 13 12 12 13 13 13 13 13 12 12 12 12 10 10 10 10 9 9 10 10 11 11 11 11 12 12 12
Wind_Direction
69 68 64 59 56 48 41 47 49 51 52 55 60 60 59 54 53 57 57 58 60 61 63 62 62 62 64 70 75 80 85 90 94 96 96 92 90 91 93 99 102 104 103 104 105 97 92 93 96
72 69 61 54 47 36 41 45 46 48 51 51 52 51 53 53 55 57 58 61 62 60 58 60 60 61 61 63 69 74 78 87 90 91 95 93 92 92 96 99 99 101 103 101 99 94 92 96 99
73 67 60 49 33 35 42 44 44 44 44 43 43 46 47 46 50 53 57 63 64 61 59 58 57 61 58 58 64 71 79 84 88 90 97 93 90 92 93 96 95 97 102 102 99 96 94 98 101
75 69 56 40 38 39 38 39 40 38 38 41 40 41 44 47 49 50 54 62 64 61 58 57 57 55 54 59 63 70 77 84 88 89 92 89 87 89 90 91 92 95 100 103 99 99 97 98 100
73 70 51 27 33 39 40 39 37 38 36 39 41 38 41 45 47 49 52 55 61 61 60 59 56 53 54 56 63 67 72 80 88 91 89 87 87 88 89 88 89 92 97 99 100 102 100 101 104
71 68 45 29 31 35 37 37 39 38 37 39 41 39 39 43 46 48 49 47 50 55 55 55 53 50 50 53 59 60 64 72 83 88 90 89 87 88 89 89 88 90 95 99 103 102 101 105 107
78 79 47 26 26 32 35 35 36 35 38 38 41 42 38 38 41 44 49 49 47 46 48 48 47 45 50 49 50 54 58 64 73 82 83 85 82 86 89 89 89 89 91 96 100 98 99 101 105
84 79 56 22 19 28 34 34 36 37 38 38 37 38 37 36 36 41 48 47 45 42 42 37 31 36 45 45 47 54 60 64 68 77 81 87 84 86 88 87 87 87 89 94 99 101 102 101 102
76 81 66 22 14 24 32 34 34 36 36 40 36 35 33 35 37 37 41 42 40 34 30 27 28 33 41 45 54 59 61 60 63 73 85 88 89 92 91 90 87 87 91 95 99 100 103 104 104
69 85 70 29 18 25 28 30 31 32 30 32 32 31 32 33 35 37 37 37 35 30 25 24 27 30 37 48 50 51 61 59 59 67 84 90 94 94 95 92 92 90 92 95 98 102 105 105 106
69 80 59 35 28 32 30 28 29 26 26 26 27 30 32 31 32 35 34 32 32 28 27 28 33 36 44 49 46 52 59 60 63 67 80 85 93 96 94 94 96 96 94 97 99 100 99 103 111
56 73 52 30 37 39 35 34 28 26 21 21 26 29 30 29 29 29 31 30 28 29 33 34 37 40 46 48 47 50 55 57 69 79 76 79 81 86 90 98 100 96 94 97 102 104 103 106 109
65 43 41 22 37 42 48 35 24 24 18 19 24 27 28 28 28 28 30 30 28 29 32 35 37 37 36 37 38 40 44 51 66 68 68 64 70 78 81 84 91 96 100 99 102 112 113 109 105
120 53 40 28 20 18 28 36 32 19 14 17 21 23 25 26 27 27 27 30 29 27 29 31 32 32 33 31 30 34 36 43 58 69 68 70 71 68 70 72 75 80 92 98 101 117 128 113 102
128 97 45 8 3 7 12 28 24 11 9 11 16 20 23 25 27 27 28 28 27 27 30 29 29 28 27 29 28 25 30 35 52 65 65 69 69 65 66 59 56 48 53 91 107 113 146 174 250
179 115 128 328 344 352 3 2 357 4 6 9 11 17 20 23 24 25 25 25 25 25 26 24 27 25 24 24 26 23 30 36 43 52 55 57 52 43 38 31 27 26 30 27 23 34 285 304 290
192 18 302 288 316 325 347 341 341 353 360 3 7 15 18 18 20 21 21 22 21 20 19 21 23 19 14 15 22 24 30 27 26 30 35 29 22 24 19 20 15 9 2 352 329 311 290 288 288
179 207 245 281 288 307 317 326 334 345 354 359 5 13 14 13 14 16 17 17 17 16 17 17 16 13 12 10 11 15 19 14 9 3 353 347 349 354 353 358 1 347 339 335 310 301 292 285 278
200 197 218 245 262 282 290 301 315 335 343 352 2 7 9 11 11 11 12 13 13 12 13 11 8 8 5 4 1 4 2 355 347 341 326 320 320 333 337 334 332 326 312 306 307 305 300 292 286
207 209 225 254 271 279 274 272 289 327 338 342 356 359 0 7 10 9 8 7 7 7 8 6 3 1 357 354 351 350 349 340 333 332 322 307 305 310 319 326 322 319 311 302 301 302 302 300 295
211 207 214 243 271 281 277 282 276 299 330 335 345 352 354 358 2 4 4 3 4 3 3 1 0 356 350 344 340 336 333 330 329 323 316 306 304 307 310 311 307 305 307 304 295 296 298 298 299
218 221 219 227 241 265 279 287 286 300 315 327 337 341 346 349 352 356 359 359 359 360 359 357 356 354 348 340 335 326 324 327 324 320 311 303 302 303 307 308 305 303 305 307 305 296 297 296 298
215 224 228 225 226 235 251 276 283 296 309 318 328 329 334 338 340 347 352 354 354 354 355 352 350 349 347 341 336 331 327 326 323 317 311 307 303 301 303 306 306 306 307 306 308 307 307 305 302
219 218 226 230 230 237 234 257 273 279 296 306 316 323 326 330 333 337 344 347 349 349 348 349 348 346 343 340 335 329 327 323 321 318 312 309 307 304 302 302 303 305 306 309 313 314 310 307 304
223 218 230 240 243 242 236 243 260 272 286 295 300 309 314 321 327 338 341 339 342 344 346 347 347 346 342 340 336 330 327 326 319 319 315 311 309 306 302 300 302 303 302 305 310 312 312 312 310
229 221 222 230 257 268 252 235 248 267 277 285 293 301 308 320 321 328 333 336 336 339 343 347 347 344 340 337 335 334 331 329 326 319 313 308 308 306 306 305 304 303 303 304 306 310 313 313 311
227 226 222 224 231 241 250 254 256 264 276 284 292 299 309 318 320 324 330 332 334 336 337 340 343 344 342 337 335 334 331 330 330 328 322 315 308 307 308 308 306 302 304 306 309 311 312 312 313
226 225 219 217 223 229 242 245 258 271 279 285 286 291 303 312 319 322 327 332 334 334 333 336 338 341 340 336 334 334 335 335 333 332 326 319 314 312 312 311 308 309 310 310 312 312 312 312 311
225 222 221 221 220 221 236 250 258 269 278 281 282 287 292 302 315 319 323 326 330 329 332 334 336 337 335 335 336 333 331 331 331 330 328 326 324 318 315 314 320 320 317 313 310 311 311 311 312
227 225 223 224 222 218 230 248 247 258 270 273 275 278 288 298 307 312 316 320 325 327 330 331 333 334 334 334 333 331 328 329 329 328 328 325 320 318 318 318 319 320 319 317 311 307 308 310 313
Height
5909 5908 5908 5906 5906 5907 5905 5903 5902 5900 5899 5898 5897 5896 5895 5894 5894 5895 5892 5890 5890 5889 5889 5889 5889 5889 5888 5888 5887 5886 5886 5885 5884 5884 5883 5883 5883 5883 5883 5883 5883 5884 5885 5885 5885 5885 5886 5886 5887
5912 5912 5910 5909 5911 5910 5908 5906 5905 5903 5902 5900 5899 5898 5896 5895 5895 5894 5892 5892 5892 5891 5891 5891 5891 5891 5890 5890 5889 5889 5888 5887 5886 5886 5886 5885 5885 5885 5885 5885 5885 5886 5886 5887 5887 5888 5888 5888 5889
5915 5913 5913 5916 5915 5913 5911 5909 5907 5906 5904 5902 5901 5900 5899 5897 5896 5895 5894 5894 5893 5893 5893 5892 5892 5892 5892 5892 5891 5891 5890 5889 5889 5888 5888 5887 5887 5887 5887 5887 5887 5888 5888 5889 5889 5889 5890 5890 5891
5916 5915 5919 5921 5918 5916 5914 5912 5910 5909 5906 5905 5904 5902 5900 5899 5898 5897 5896 5895 5895 5895 5894 5894 5894 5894 5894 5894 5893 5892 5892 5891 5891 5890 5890 5889 5889 5889 5889 5889 5889 5890 5890 5890 5891 5891 5892 5892 5892
5918 5919 5924 5923 5920 5918 5917 5915 5913 5911 5909 5907 5906 5904 5902 5901 5900 5898 5897 5897 5896 5896 5896 5895 5895 5896 5895 5895 5895 5894 5894 5893 5893 5892 5892 5892 5892 5891 5891 5891 5891 5891 5892 5892 5893 5893 5893 5894 5894
5921 5924 5928 5926 5923 5921 5919 5917 5916 5914 5911 5909 5907 5906 5905 5903 5902 5900 5899 5898 5898 5897 5897 5897 5897 5897 5897 5896 5896 5896 5895 5895 5894 5894 5894 5894 5893 5893 5893 5893 5893 5893 5894 5894 5894 5895 5895 5895 5896
5924 5929 5931 5928 5926 5924 5922 5920 5918 5916 5914 5912 5909 5907 5906 5905 5903 5902 5901 5900 5899 5899 5898 5898 5898 5898 5898 5897 5897 5897 5897 5896 5896 5896 5895 5895 5895 5895 5895 5895 5895 5895 5895 5895 5896 5896 5897 5897 5898
5929 5931 5932 5931 5929 5926 5925 5922 5920 5918 5916 5914 5912 5910 5909 5907 5906 5903 5902 5902 5901 5901 5900 5900 5899 5899 5899 5898 5898 5898 5898 5898 5897 5897 5897 5897 5896 5896 5896 5896 5896 5897 5897 5897 5898 5898 5898 5899 5899
5933 5935 5935 5933 5931 5929 5927 5925 5923 5920 5918 5917 5915 5913 5911 5908 5907 5906 5904 5904 5903 5902 5902 5901 5901 5900 5900 5899 5899 5899 5899 5899 5899 5898 5898 5898 5898 5898 5898 5898 5898 5898 5898 5899 5899 5900 5900 5900 5901
5935 5936 5936 5935 5933 5931 5929 5927 5925 5922 5921 5919 5918 5916 5913 5911 5910 5908 5907 5906 5905 5904 5903 5902 5902 5901 5901 5901 5900 5900 5900 5900 5900 5900 5900 5900 5900 5900 5899 5899 5899 5900 5900 5900 5901 5901 5902 5902 5902
5937 5938 5937 5936 5934 5933 5931 5929 5927 5925 5923 5922 5920 5918 5916 5914 5912 5910 5909 5907 5906 5905 5904 5904 5903 5903 5902 5902 5902 5902 5902 5901 5901 5901 5901 5901 5901 5901 5901 5901 5901 5901 5902 5902 5902 5903 5903 5903 5903
5939 5938 5937 5936 5935 5934 5933 5931 5930 5928 5927 5924 5922 5920 5918 5916 5914 5912 5911 5909 5908 5907 5906 5906 5905 5904 5904 5903 5903 5902 5902 5902 5901 5902 5902 5902 5902 5902 5902 5902 5903 5903 5903 5903 5904 5904 5904 5905 5905
5940 5939 5938 5937 5936 5935 5933 5933 5932 5930 5928 5926 5924 5922 5920 5918 5916 5914 5912 5911 5910 5909 5908 5907 5907 5906 5906 5905 5905 5903 5904 5903 5902 5903 5903 5903 5903 5904 5904 5904 5904 5904 5904 5905 5905 5905 5905 5906 5906
5939 5939 5939 5939 5938 5936 5935 5933 5933 5932 5929 5928 5926 5924 5922 5920 5918 5916 5914 5913 5912 5910 5909 5909 5908 5908 5907 5907 5907 5906 5905 5905 5904 5904 5905 5905 5905 5905 5905 5905 5906 5906 5906 5906 5906 5906 5906 5906 5907
5938 5940 5941 5940 5939 5937 5936 5934 5934 5933 5931 5929 5927 5926 5924 5922 5920 5918 5915 5914 5913 5912 5911 5910 5910 5909 5909 5908 5908 5908 5907 5906 5906 5906 5906 5906 5906 5906 5906 5906 5906 5906 5906 5907 5906 5906 5907 5907 5907
5938 5939 5940 5941 5940 5939 5939 5937 5935 5934 5932 5931 5929 5927 5925 5924 5922 5920 5918 5916 5915 5914 5913 5912 5911 5911 5910 5910 5909 5909 5908 5908 5908 5907 5907 5907 5907 5907 5907 5907 5907 5907 5907 5907 5907 5907 5907 5907 5907
5939 5940 5941 5941 5941 5940 5940 5938 5936 5934 5934 5932 5930 5928 5927 5926 5924 5922 5920 5918 5917 5915 5914 5913 5912 5912 5912 5911 5910 5910 5909 5909 5909 5908 5908 5908 5908 5908 5908 5907 5907 5907 5907 5907 5907 5907 5906 5906 5906
5940 5942 5943 5943 5942 5942 5941 5939 5938 5936 5935 5934 5931 5929 5928 5927 5925 5923 5922 5920 5918 5916 5915 5914 5913 5913 5912 5912 5911 5911 5910 5910 5909 5909 5909 5908 5908 5908 5908 5907 5907 5907 5907 5906 5906 5906 5906 5906 5906
5939 5941 5943 5943 5942 5942 5942 5940 5939 5938 5936 5934 5933 5931 5930 5928 5927 5925 5923 5921 5919 5918 5916 5915 5914 5913 5913 5912 5912 5911 5911 5910 5910 5909 5909 5909 5908 5908 5908 5907 5907 5907 5907 5906 5906 5905 5905 5905 5905
5937 5941 5943 5943 5941 5942 5941 5940 5939 5937 5937 5935 5933 5932 5930 5929 5928 5926 5924 5922 5920 5919 5917 5916 5915 5913 5913 5912 5912 5911 5911 5910 5910 5909 5909 5908 5908 5908 5907 5907 5906 5906 5906 5905 5905 5904 5904 5904 5903
5936 5939 5941 5942 5941 5941 5941 5940 5939 5936 5936 5936 5934 5932 5931 5929 5928 5927 5925 5923 5921 5919 5918 5916 5915 5914 5913 5912 5912 5911 5910 5910 5909 5909 5909 5908 5907 5907 5907 5906 5905 5905 5905 5904 5903 5903 5903 5902 5902
5934 5936 5938 5940 5940 5941 5941 5940 5937 5936 5935 5935 5934 5932 5931 5929 5928 5927 5925 5923 5921 5920 5918 5916 5915 5914 5912 5912 5911 5910 5910 5909 5909 5908 5908 5907 5907 5906 5906 5905 5904 5904 5903 5903 5902 5901 5900 5900 5899
5931 5934 5936 5937 5938 5939 5939 5939 5937 5935 5934 5934 5934 5932 5931 5930 5927 5926 5925 5923 5922 5920 5918 5916 5915 5914 5912 5911 5910 5909 5909 5908 5908 5907 5907 5906 5906 5905 5905 5904 5903 5902 5902 5901 5900 5899 5898 5898 5897
5928 5931 5933 5934 5936 5938 5939 5940 5938 5935 5935 5934 5933 5933 5931 5929 5927 5925 5924 5923 5921 5920 5918 5916 5915 5913 5911 5910 5909 5909 5908 5907 5907 5906 5905 5905 5904 5904 5903 5902 5901 5901 5900 5899 5898 5897 5896 5896 5895
5926 5929 5931 5932 5933 5935 5937 5939 5937 5934 5935 5934 5933 5932 5930 5929 5927 5925 5924 5923 5921 5919 5918 5916 5914 5913 5911 5910 5909 5907 5907 5906 5905 5904 5903 5903 5902 5902 5901 5900 5899 5899 5898 5897 5896 5896 5895 5893 5892
5923 5926 5929 5932 5933 5934 5935 5936 5936 5934 5934 5933 5932 5931 5929 5928 5926 5924 5923 5922 5921 5919 5917 5916 5914 5912 5910 5909 5908 5906 5906 5905 5904 5902 5902 5901 5900 5900 5899 5898 5897 5897 5896 5895 5894 5893 5892 5891 5890
5919 5922 5926 5930 5932 5935 5935 5934 5933 5932 5932 5931 5931 5929 5928 5927 5925 5924 5922 5921 5919 5918 5916 5915 5913 5912 5910 5908 5907 5905 5904 5903 5902 5901 5900 5899 5898 5898 5897 5896 5895 5895 5894 5893 5892 5891 5890 5889 5888
5916 5920 5923 5925 5928 5931 5932 5931 5931 5930 5930 5929 5929 5928 5927 5926 5925 5923 5921 5920 5919 5918 5916 5914 5913 5911 5909 5908 5906 5905 5903 5902 5901 5900 5898 5897 5896 5895 5895 5894 5894 5893 5892 5891 5890 5889 5888 5887 5885
5912 5915 5918 5922 5925 5928 5930 5931 5927 5927 5928 5928 5926 5926 5925 5924 5924 5922 5920 5919 5918 5917 5915 5914 5912 5910 5909 5907 5906 5904 5902 5901 5900 5899 5897 5896 5895 5894 5893 5892 5891 5890 5890 5888 5887 5886 5885 5884 5883
5908 5911 5915 5918 5920 5924 5926 5926 5923 5923 5923 5924 5924 5924 5924 5923 5922 5921 5919 5918 5917 5916 5915 5913 5911 5910 5908 5906 5904 5903 5902 5900 5899 5897 5896 5895 5894 5893 5892 5891 5890 5889 5888 5886 5885 5884 5883 5882 5881